Time,TemperatureF,DewpointF,PressureIn,WindDirection,WindDirectionDegrees,WindSpeedMPH,WindSpeedGustMPH,Humidity,HourlyPrecipIn,Conditions,Clouds,dailyrainin,SoftwareType,DateUTC
2013-07-28 00:01:00,55.6,53.9,29.91,WSW,250,0.0,0.0,94,0.00,,,0.01,WUHU216DAVISVP2,2013-07-28 04:01:00,
2013-07-28 00:13:00,55.4,53.7,29.91,WSW,250,0.0,0.0,94,0.00,,,0.00,WUHU216DAVISVP2,2013-07-28 04:13:00,
2013-07-28 00:18:00,55.4,53.7,29.91,WSW,250,0.0,0.0,94,0.00,,,0.00,WUHU216DAVISVP2,2013-07-28 04:18:00,
2013-07-28 00:35:00,55.1,53.4,29.91,WSW,251,0.0,0.0,94,0.00,,,0.00,WUHU216DAVISVP2,2013-07-28 04:35:00,
2013-07-28 00:40:00,55.0,53.3,29.90,WSW,250,0.0,0.0,94,0.00,,,0.00,WUHU216DAVISVP2,2013-07-28 04:40:00,
2013-07-28 00:45:00,54.9,53.2,29.91,WSW,251,0.0,0.0,94,0.00,,,0.00,WUHU216DAVISVP2,2013-07-28 04:45:00,
2013-07-28 00:57:00,54.7,53.0,29.91,WSW,250,0.0,0.0,94,0.00,,,0.00,WUHU216DAVISVP2,2013-07-28 04:57:00,
2013-07-28 01:02:00,54.6,53.2,29.91,WSW,250,0.0,0.0,95,0.00,,,0.00,WUHU216DAVISVP2,2013-07-28 05:02:00,
2013-07-28 01:07:00,54.5,53.1,29.91,WSW,239,0.0,0.0,95,0.00,,,0.00,WUHU216DAVISVP2,2013-07-28 05:07:00,
2013-07-28 01:19:00,54.4,52.7,29.91,SW,224,0.0,0.0,94,0.00,,,0.00,WUHU216DAVISVP2,2013-07-28 05:19:00,
2013-07-28 01:24:00,54.3,52.6,29.91,SW,233,0.0,0.0,94,0.00,,,0.00,WUHU216DAVISVP2,2013-07-28 05:24:00,
2013-07-28 01:41:00,54.0,52.3,29.91,SSW,212,0.0,0.0,94,0.00,,,0.00,WUHU216DAVISVP2,2013-07-28 05:41:00,
2013-07-28 01:46:00,54.0,52.3,29.91,SW,225,0.0,0.0,94,0.00,,,0.00,WUHU216DAVISVP2,2013-07-28 05:46:00,
2013-07-28 02:03:00,53.7,51.7,29.90,WSW,245,0.0,2.0,93,0.00,,,0.00,WUHU216DAVISVP2,2013-07-28 06:03:00,
2013-07-28 02:08:00,53.5,51.5,29.91,SW,234,0.0,2.0,93,0.00,,,0.00,WUHU216DAVISVP2,2013-07-28 06:08:00,
2013-07-28 02:13:00,53.3,51.6,29.90,SW,228,0.0,2.0,94,0.00,,,0.00,WUHU216DAVISVP2,2013-07-28 06:13:00,
2013-07-28 02:24:00,52.8,51.1,29.91,SW,228,0.0,1.0,94,0.00,,,0.00,WUHU216DAVISVP2,2013-07-28 06:24:00,
2013-07-28 02:29:00,52.6,50.9,29.90,WSW,248,0.0,1.0,94,0.00,,,0.00,WUHU216DAVISVP2,2013-07-28 06:29:00,
2013-07-28 02:34:00,52.5,50.8,29.90,SW,235,0.0,1.0,94,0.00,,,0.00,WUHU216DAVISVP2,2013-07-28 06:34:00,
2013-07-28 02:46:00,52.1,50.4,29.90,SW,222,0.0,1.0,94,0.00,,,0.00,WUHU216DAVISVP2,2013-07-28 06:46:00,
2013-07-28 02:52:00,52.0,50.3,29.91,SW,226,0.0,1.0,94,0.00,,,0.00,WUHU216DAVISVP2,2013-07-28 06:52:00,
2013-07-28 02:57:00,52.0,50.3,29.90,SSW,207,0.0,1.0,94,0.00,,,0.00,WUHU216DAVISVP2,2013-07-28 06:57:00,
2013-07-28 03:08:00,52.1,50.4,29.90,SW,233,0.0,1.0,94,0.00,,,0.00,WUHU216DAVISVP2,2013-07-28 07:08:00,
2013-07-28 03:13:00,52.2,50.5,29.90,SSW,210,0.0,2.0,94,0.00,,,0.00,WUHU216DAVISVP2,2013-07-28 07:13:00,
2013-07-28 03:30:00,52.5,50.5,29.90,West,259,0.0,4.0,93,0.00,,,0.00,WUHU216DAVISVP2,2013-07-28 07:30:00,
2013-07-28 03:35:00,52.5,50.5,29.90,SW,231,0.0,3.0,93,0.00,,,0.00,WUHU216DAVISVP2,2013-07-28 07:35:00,
2013-07-28 03:52:00,52.2,50.2,29.90,WSW,238,0.0,2.0,93,0.00,,,0.00,WUHU216DAVISVP2,2013-07-28 07:52:00,
2013-07-28 03:57:00,52.1,50.1,29.90,SW,224,0.0,4.0,93,0.00,,,0.00,WUHU216DAVISVP2,2013-07-28 07:57:00,
2013-07-28 04:02:00,52.0,50.0,29.90,West,263,0.0,4.0,93,0.00,,,0.00,WUHU216DAVISVP2,2013-07-28 08:02:00,
2013-07-28 04:14:00,51.8,49.5,29.89,SW,229,0.0,3.0,92,0.00,,,0.00,WUHU216DAVISVP2,2013-07-28 08:14:00,
2013-07-28 04:19:00,51.7,49.4,29.89,WSW,255,0.0,2.0,92,0.00,,,0.00,WUHU216DAVISVP2,2013-07-28 08:19:00,
2013-07-28 04:24:00,51.7,49.4,29.89,SW,217,0.0,3.0,92,0.00,,,0.00,WUHU216DAVISVP2,2013-07-28 08:24:00,
2013-07-28 04:36:00,51.6,49.3,29.89,SW,226,0.0,5.0,92,0.00,,,0.00,WUHU216DAVISVP2,2013-07-28 08:36:00,
2013-07-28 04:41:00,51.5,49.2,29.89,South,181,0.0,4.0,92,0.00,,,0.00,WUHU216DAVISVP2,2013-07-28 08:41:00,
2013-07-28 04:58:00,51.4,49.1,29.89,WSW,253,1.0,5.0,92,0.00,,,0.00,WUHU216DAVISVP2,2013-07-28 08:58:00,
2013-07-28 05:03:00,51.5,49.2,29.89,WSW,238,0.0,7.0,92,0.00,,,0.00,WUHU216DAVISVP2,2013-07-28 09:03:00,
2013-07-28 05:20:00,51.2,48.9,29.89,WSW,242,0.0,5.0,92,0.00,,,0.00,WUHU216DAVISVP2,2013-07-28 09:20:00,
2013-07-28 05:25:00,51.1,48.8,29.89,SW,228,0.0,4.0,92,0.00,,,0.00,WUHU216DAVISVP2,2013-07-28 09:25:00,
2013-07-28 05:42:00,50.4,48.4,29.90,SW,218,1.0,2.0,93,0.00,,,0.00,WUHU216DAVISVP2,2013-07-28 09:42:00,
2013-07-28 05:47:00,50.3,48.3,29.90,WSW,238,0.0,2.0,93,0.00,,,0.00,WUHU216DAVISVP2,2013-07-28 09:47:00,
2013-07-28 05:52:00,50.2,48.2,29.90,WSW,238,0.0,2.0,93,0.00,,,0.00,WUHU216DAVISVP2,2013-07-28 09:52:00,
2013-07-28 06:04:00,50.1,48.1,29.90,SW,222,0.0,2.0,93,0.00,,,0.00,WUHU216DAVISVP2,2013-07-28 10:04:00,
2013-07-28 06:09:00,50.0,48.0,29.91,SW,228,0.0,3.0,93,0.00,,,0.00,WUHU216DAVISVP2,2013-07-28 10:09:00,
2013-07-28 06:14:00,49.9,48.2,29.91,SW,219,1.0,4.0,94,0.00,,,0.00,WUHU216DAVISVP2,2013-07-28 10:14:00,
2013-07-28 06:26:00,49.8,48.1,29.91,SW,235,0.0,5.0,94,0.00,,,0.00,WUHU216DAVISVP2,2013-07-28 10:26:00,
2013-07-28 06:30:00,49.7,48.0,29.92,SW,231,0.0,5.0,94,0.00,,,0.00,WUHU216DAVISVP2,2013-07-28 10:30:00,
2013-07-28 06:47:00,49.8,48.1,29.92,SSW,210,0.0,5.0,94,0.00,,,0.00,WUHU216DAVISVP2,2013-07-28 10:47:00,
2013-07-28 06:52:00,50.0,48.3,29.92,SW,229,0.0,5.0,94,0.00,,,0.00,WUHU216DAVISVP2,2013-07-28 10:52:00,
2013-07-28 07:09:00,51.5,49.2,29.93,SSW,205,0.0,5.0,92,0.00,,,0.00,WUHU216DAVISVP2,2013-07-28 11:09:00,
2013-07-28 07:14:00,51.6,49.3,29.93,SSW,207,1.0,5.0,92,0.00,,,0.00,WUHU216DAVISVP2,2013-07-28 11:14:00,
2013-07-28 07:19:00,51.8,49.5,29.93,WSW,247,1.0,5.0,92,0.00,,,0.00,WUHU216DAVISVP2,2013-07-28 11:19:00,
2013-07-28 07:31:00,51.6,49.3,29.93,SW,235,3.0,7.0,92,0.00,,,0.00,WUHU216DAVISVP2,2013-07-28 11:31:00,
2013-07-28 07:36:00,51.7,49.4,29.93,SW,229,1.0,7.0,92,0.00,,,0.00,WUHU216DAVISVP2,2013-07-28 11:36:00,
2013-07-28 07:53:00,51.9,49.6,29.94,SSW,210,4.0,9.0,92,0.00,,,0.00,WUHU216DAVISVP2,2013-07-28 11:53:00,
2013-07-28 07:58:00,52.0,49.7,29.94,SW,217,0.0,8.0,92,0.00,,,0.00,WUHU216DAVISVP2,2013-07-28 11:58:00,
2013-07-28 08:03:00,52.2,49.9,29.95,SW,224,0.0,11.0,92,0.00,,,0.00,WUHU216DAVISVP2,2013-07-28 12:03:00,
2013-07-28 08:15:00,52.6,50.0,29.94,WSW,238,1.0,10.0,91,0.00,,,0.00,WUHU216DAVISVP2,2013-07-28 12:15:00,
2013-07-28 08:20:00,52.9,50.3,29.95,SW,233,0.0,7.0,91,0.00,,,0.00,WUHU216DAVISVP2,2013-07-28 12:20:00,
2013-07-28 08:37:00,53.9,50.7,29.94,West,260,0.0,8.0,89,0.00,,,0.00,WUHU216DAVISVP2,2013-07-28 12:37:00,
2013-07-28 08:42:00,54.4,50.9,29.94,WSW,238,2.0,8.0,88,0.00,,,0.00,WUHU216DAVISVP2,2013-07-28 12:42:00,
2013-07-28 08:47:00,54.8,51.0,29.94,WSW,256,4.0,7.0,87,0.00,,,0.00,WUHU216DAVISVP2,2013-07-28 12:47:00,
2013-07-28 08:59:00,55.3,51.2,29.94,WSW,248,4.0,10.0,86,0.00,,,0.00,WUHU216DAVISVP2,2013-07-28 12:59:00,
2013-07-28 09:04:00,55.8,51.7,29.94,SW,228,4.0,10.0,86,0.00,,,0.00,WUHU216DAVISVP2,2013-07-28 13:04:00,
2013-07-28 09:09:00,56.6,51.8,29.95,SSW,197,4.0,9.0,84,0.00,,,0.00,WUHU216DAVISVP2,2013-07-28 13:09:00,
2013-07-28 09:21:00,56.7,51.6,29.95,WSW,238,4.0,9.0,83,0.00,,,0.00,WUHU216DAVISVP2,2013-07-28 13:21:00,
2013-07-28 09:26:00,56.7,51.3,29.95,West,269,1.0,8.0,82,0.00,,,0.00,WUHU216DAVISVP2,2013-07-28 13:26:00,
2013-07-28 09:43:00,57.2,51.8,29.95,WSW,250,0.0,8.0,82,0.00,,,0.00,WUHU216DAVISVP2,2013-07-28 13:43:00,
2013-07-28 09:48:00,57.5,51.4,29.95,SW,222,2.0,9.0,80,0.00,,,0.00,WUHU216DAVISVP2,2013-07-28 13:48:00,
2013-07-28 09:53:00,57.8,51.4,29.94,WSW,246,6.0,9.0,79,0.00,,,0.00,WUHU216DAVISVP2,2013-07-28 13:53:00,
2013-07-28 10:05:00,59.0,52.6,29.94,West,271,0.0,8.0,79,0.00,,,0.00,WUHU216DAVISVP2,2013-07-28 14:05:00,
2013-07-28 10:10:00,59.5,52.0,29.94,WSW,246,6.0,9.0,76,0.00,,,0.00,WUHU216DAVISVP2,2013-07-28 14:10:00,
2013-07-28 10:27:00,60.7,52.1,29.94,SW,225,4.0,10.0,73,0.00,,,0.00,WUHU216DAVISVP2,2013-07-28 14:27:00,
2013-07-28 10:32:00,61.1,53.2,29.94,South,184,1.0,9.0,75,0.00,,,0.00,WUHU216DAVISVP2,2013-07-28 14:32:00,
2013-07-28 10:37:00,61.2,53.0,29.95,SW,232,4.0,9.0,74,0.00,,,0.00,WUHU216DAVISVP2,2013-07-28 14:37:00,
2013-07-28 10:48:00,61.3,52.3,29.94,WSW,257,1.0,11.0,72,0.00,,,0.00,WUHU216DAVISVP2,2013-07-28 14:48:00,
2013-07-28 10:53:00,61.5,52.9,29.94,West,270,4.0,11.0,73,0.00,,,0.00,WUHU216DAVISVP2,2013-07-28 14:53:00,
2013-07-28 11:10:00,62.3,53.3,29.94,WSW,238,0.0,8.0,72,0.00,,,0.00,WUHU216DAVISVP2,2013-07-28 15:10:00,
2013-07-28 11:15:00,62.4,52.6,29.94,WSW,245,1.0,9.0,70,0.00,,,0.00,WUHU216DAVISVP2,2013-07-28 15:15:00,
2013-07-28 11:32:00,63.0,53.6,29.93,WSW,250,0.0,8.0,71,0.00,,,0.00,WUHU216DAVISVP2,2013-07-28 15:32:00,
2013-07-28 11:37:00,63.5,53.7,29.93,SSW,197,4.0,9.0,70,0.00,,,0.00,WUHU216DAVISVP2,2013-07-28 15:37:00,
2013-07-28 11:42:00,63.8,54.4,29.93,SW,233,3.0,9.0,71,0.00,,,0.00,WUHU216DAVISVP2,2013-07-28 15:42:00,
2013-07-28 11:54:00,64.0,52.6,29.93,SW,225,12.0,12.0,66,0.00,,,0.00,WUHU216DAVISVP2,2013-07-28 15:54:00,
2013-07-28 11:59:00,63.9,52.9,29.93,SW,231,8.0,13.0,67,0.00,,,0.00,WUHU216DAVISVP2,2013-07-28 15:59:00,
2013-07-28 12:16:00,64.7,54.1,29.93,SW,214,1.0,12.0,68,0.00,,,0.00,WUHU216DAVISVP2,2013-07-28 16:16:00,
2013-07-28 12:21:00,65.3,55.0,29.93,SSW,193,6.0,12.0,69,0.00,,,0.00,WUHU216DAVISVP2,2013-07-28 16:21:00,
2013-07-28 12:38:00,65.9,55.6,29.93,SSW,198,2.0,15.0,69,0.00,,,0.00,WUHU216DAVISVP2,2013-07-28 16:38:00,
2013-07-28 12:43:00,65.9,54.4,29.93,SW,231,8.0,15.0,66,0.00,,,0.00,WUHU216DAVISVP2,2013-07-28 16:43:00,
2013-07-28 13:00:00,66.9,54.9,29.93,SW,226,9.0,16.0,65,0.00,,,0.00,WUHU216DAVISVP2,2013-07-28 17:00:00,
2013-07-28 13:05:00,66.4,54.0,29.93,WSW,252,2.0,13.0,64,0.00,,,0.00,WUHU216DAVISVP2,2013-07-28 17:05:00,
2013-07-28 13:22:00,64.7,53.2,29.93,West,260,3.0,12.0,66,0.00,,,0.00,WUHU216DAVISVP2,2013-07-28 17:22:00,
2013-07-28 13:27:00,64.6,54.4,29.93,WSW,245,4.0,10.0,69,0.00,,,0.00,WUHU216DAVISVP2,2013-07-28 17:27:00,
2013-07-28 13:32:00,64.4,54.2,29.94,SW,233,4.0,9.0,69,0.00,,,0.00,WUHU216DAVISVP2,2013-07-28 17:32:00,
2013-07-28 13:44:00,63.7,53.5,29.94,WNW,288,1.0,12.0,69,0.00,,,0.00,WUHU216DAVISVP2,2013-07-28 17:44:00,
2013-07-28 13:49:00,63.4,53.6,29.94,West,276,3.0,12.0,70,0.00,,,0.00,WUHU216DAVISVP2,2013-07-28 17:49:00,
2013-07-28 14:06:00,63.0,54.0,29.94,WNW,288,1.0,5.0,72,0.00,,,0.00,WUHU216DAVISVP2,2013-07-28 18:06:00,
2013-07-28 14:11:00,63.0,53.6,29.94,WSW,246,0.0,8.0,71,0.00,,,0.00,WUHU216DAVISVP2,2013-07-28 18:11:00,
2013-07-28 14:27:00,62.8,53.8,29.95,NW,307,1.0,11.0,72,0.00,,,0.00,WUHU216DAVISVP2,2013-07-28 18:27:00,
2013-07-28 14:33:00,63.2,54.2,29.95,West,266,2.0,11.0,72,0.00,,,0.00,WUHU216DAVISVP2,2013-07-28 18:33:00,
2013-07-28 14:38:00,63.8,54.4,29.95,WSW,238,2.0,12.0,71,0.00,,,0.00,WUHU216DAVISVP2,2013-07-28 18:38:00,
2013-07-28 14:49:00,64.9,55.0,29.95,WSW,253,9.0,11.0,70,0.00,,,0.00,WUHU216DAVISVP2,2013-07-28 18:49:00,
2013-07-28 14:54:00,65.5,56.0,29.95,WNW,293,6.0,10.0,71,0.00,,,0.00,WUHU216DAVISVP2,2013-07-28 18:54:00,
2013-07-28 15:11:00,65.8,55.5,29.95,WSW,240,1.0,9.0,69,0.00,,,0.00,WUHU216DAVISVP2,2013-07-28 19:11:00,
2013-07-28 15:16:00,65.9,55.4,29.95,WNW,290,1.0,7.0,69,0.00,,,0.00,WUHU216DAVISVP2,2013-07-28 19:16:00,
2013-07-28 15:33:00,64.9,53.3,29.96,NW,311,3.0,12.0,66,0.00,,,0.00,WUHU216DAVISVP2,2013-07-28 19:33:00,
2013-07-28 15:38:00,65.3,54.1,29.96,SSW,198,0.0,12.0,67,0.00,,,0.00,WUHU216DAVISVP2,2013-07-28 19:38:00,
2013-07-28 15:43:00,65.3,54.1,29.96,WSW,245,0.0,12.0,67,0.00,,,0.00,WUHU216DAVISVP2,2013-07-28 19:43:00,
2013-07-28 15:55:00,66.0,54.7,29.96,WSW,252,4.0,12.0,67,0.00,,,0.00,WUHU216DAVISVP2,2013-07-28 19:55:00,
2013-07-28 16:00:00,66.3,55.2,29.96,WNW,290,11.0,11.0,67,0.00,,,0.00,WUHU216DAVISVP2,2013-07-28 20:00:00,
2013-07-28 16:17:00,66.7,54.3,29.96,SSW,199,0.0,11.0,64,0.00,,,0.00,WUHU216DAVISVP2,2013-07-28 20:17:00,
2013-07-28 16:22:00,66.2,54.3,29.96,WSW,243,3.0,11.0,65,0.00,,,0.00,WUHU216DAVISVP2,2013-07-28 20:22:00,
2013-07-28 16:39:00,66.1,55.0,29.97,WNW,283,1.0,9.0,67,0.00,,,0.00,WUHU216DAVISVP2,2013-07-28 20:39:00,
2013-07-28 16:44:00,66.1,53.7,29.97,WSW,256,4.0,13.0,64,0.00,,,0.00,WUHU216DAVISVP2,2013-07-28 20:44:00,
2013-07-28 16:49:00,66.4,54.0,29.97,West,280,3.0,13.0,64,0.00,,,0.00,WUHU216DAVISVP2,2013-07-28 20:49:00,
2013-07-28 17:01:00,67.0,53.7,29.97,NW,307,2.0,13.0,62,0.00,,,0.00,WUHU216DAVISVP2,2013-07-28 21:01:00,
2013-07-28 17:06:00,66.9,54.5,29.97,South,178,2.0,12.0,64,0.00,,,0.00,WUHU216DAVISVP2,2013-07-28 21:06:00,
2013-07-28 17:23:00,66.1,53.7,29.97,WNW,297,1.0,9.0,64,0.00,,,0.00,WUHU216DAVISVP2,2013-07-28 21:23:00,
2013-07-28 17:28:00,66.8,55.3,29.97,WSW,250,0.0,8.0,66,0.00,,,0.00,WUHU216DAVISVP2,2013-07-28 21:28:00,
2013-07-28 17:45:00,67.1,53.4,29.97,WSW,253,7.0,10.0,61,0.00,,,0.00,WUHU216DAVISVP2,2013-07-28 21:45:00,
2013-07-28 17:50:00,66.5,53.2,29.98,NW,318,0.0,10.0,62,0.00,,,0.00,WUHU216DAVISVP2,2013-07-28 21:50:00,
2013-07-28 18:07:00,66.5,52.2,29.98,WSW,255,2.0,11.0,60,0.00,,,0.00,WUHU216DAVISVP2,2013-07-28 22:07:00,
2013-07-28 18:12:00,66.3,52.0,29.98,West,263,1.0,11.0,60,0.00,,,0.00,WUHU216DAVISVP2,2013-07-28 22:12:00,
2013-07-28 18:29:00,66.7,53.4,29.98,WNW,283,0.0,10.0,62,0.00,,,0.00,WUHU216DAVISVP2,2013-07-28 22:29:00,
2013-07-28 18:34:00,66.8,52.5,29.98,West,277,1.0,10.0,60,0.00,,,0.00,WUHU216DAVISVP2,2013-07-28 22:34:00,
2013-07-28 18:51:00,67.0,53.7,29.99,West,266,0.0,7.0,62,0.00,,,0.00,WUHU216DAVISVP2,2013-07-28 22:51:00,
2013-07-28 18:56:00,67.6,52.9,29.99,West,262,2.0,7.0,59,0.00,,,0.00,WUHU216DAVISVP2,2013-07-28 22:56:00,
2013-07-28 19:13:00,67.7,51.6,29.99,West,271,1.0,10.0,56,0.00,,,0.00,WUHU216DAVISVP2,2013-07-28 23:13:00,
2013-07-28 19:18:00,68.0,52.3,29.99,WSW,248,1.0,10.0,57,0.00,,,0.00,WUHU216DAVISVP2,2013-07-28 23:18:00,
2013-07-28 19:23:00,67.9,50.7,29.99,NNW,333,0.0,7.0,54,0.00,,,0.00,WUHU216DAVISVP2,2013-07-28 23:23:00,
2013-07-28 19:34:00,67.5,51.4,29.99,SSW,205,0.0,8.0,56,0.00,,,0.00,WUHU216DAVISVP2,2013-07-28 23:34:00,
2013-07-28 19:39:00,67.1,51.5,29.99,NW,306,0.0,8.0,57,0.00,,,0.00,WUHU216DAVISVP2,2013-07-28 23:39:00,
2013-07-28 19:56:00,67.9,53.2,30.00,WNW,288,0.0,3.0,59,0.00,,,0.00,WUHU216DAVISVP2,2013-07-28 23:56:00,
2013-07-28 20:02:00,67.5,53.7,30.00,WSW,243,0.0,3.0,61,0.00,,,0.00,WUHU216DAVISVP2,2013-07-29 00:02:00,
2013-07-28 20:18:00,67.5,54.2,30.00,WSW,255,0.0,1.0,62,0.00,,,0.00,WUHU216DAVISVP2,2013-07-29 00:18:00,
2013-07-28 20:23:00,67.1,54.3,30.00,WSW,253,0.0,1.0,63,0.00,,,0.00,WUHU216DAVISVP2,2013-07-29 00:23:00,
2013-07-28 20:40:00,63.8,55.5,30.01,WSW,253,0.0,0.0,74,0.00,,,0.00,WUHU216DAVISVP2,2013-07-29 00:40:00,
2013-07-28 20:45:00,62.6,55.0,30.01,WSW,253,0.0,0.0,76,0.00,,,0.00,WUHU216DAVISVP2,2013-07-29 00:45:00,
2013-07-28 21:02:00,59.8,54.0,30.01,WSW,253,0.0,0.0,81,0.00,,,0.00,WUHU216DAVISVP2,2013-07-29 01:02:00,
2013-07-28 21:07:00,59.2,53.4,30.01,WSW,253,0.0,0.0,81,0.00,,,0.00,WUHU216DAVISVP2,2013-07-29 01:07:00,
2013-07-28 21:12:00,58.9,53.1,30.01,WSW,253,0.0,0.0,81,0.00,,,0.00,WUHU216DAVISVP2,2013-07-29 01:12:00,
2013-07-28 21:24:00,57.5,52.7,30.01,SW,219,0.0,0.0,84,0.00,,,0.00,WUHU216DAVISVP2,2013-07-29 01:24:00,
2013-07-28 21:29:00,56.6,52.1,30.01,SW,219,0.0,0.0,85,0.00,,,0.00,WUHU216DAVISVP2,2013-07-29 01:29:00,
2013-07-28 21:46:00,54.4,51.2,30.02,SW,219,0.0,0.0,89,0.00,,,0.00,WUHU216DAVISVP2,2013-07-29 01:46:00,
2013-07-28 21:52:00,54.1,51.2,30.02,SW,219,0.0,0.0,90,0.00,,,0.00,WUHU216DAVISVP2,2013-07-29 01:52:00,
2013-07-28 22:08:00,53.0,50.4,30.02,SW,219,0.0,0.0,91,0.00,,,0.00,WUHU216DAVISVP2,2013-07-29 02:08:00,
2013-07-28 22:13:00,52.7,50.1,30.02,SW,219,0.0,0.0,91,0.00,,,0.00,WUHU216DAVISVP2,2013-07-29 02:13:00,
2013-07-28 22:30:00,53.1,50.5,30.03,SW,219,0.0,0.0,91,0.00,,,0.00,WUHU216DAVISVP2,2013-07-29 02:30:00,
2013-07-28 22:35:00,53.1,50.2,30.03,SW,219,0.0,0.0,90,0.00,,,0.00,WUHU216DAVISVP2,2013-07-29 02:35:00,
2013-07-28 22:52:00,53.3,50.1,30.03,SW,219,0.0,0.0,89,0.00,,,0.00,WUHU216DAVISVP2,2013-07-29 02:52:00,
2013-07-28 22:57:00,53.3,50.1,30.03,SW,219,0.0,0.0,89,0.00,,,0.00,WUHU216DAVISVP2,2013-07-29 02:57:00,
2013-07-28 23:02:00,53.2,49.7,30.03,SW,219,0.0,0.0,88,0.00,,,0.00,WUHU216DAVISVP2,2013-07-29 03:02:00,
2013-07-28 23:14:00,52.9,49.4,30.03,SW,219,0.0,0.0,88,0.00,,,0.00,WUHU216DAVISVP2,2013-07-29 03:14:00,
2013-07-28 23:19:00,52.7,49.2,30.03,SW,219,0.0,0.0,88,0.00,,,0.00,WUHU216DAVISVP2,2013-07-29 03:19:00,
2013-07-28 23:24:00,52.3,49.1,30.03,SW,219,0.0,0.0,89,0.00,,,0.00,WUHU216DAVISVP2,2013-07-29 03:24:00,
2013-07-28 23:36:00,51.5,48.6,30.04,SW,219,0.0,0.0,90,0.00,,,0.00,WUHU216DAVISVP2,2013-07-29 03:36:00,
2013-07-28 23:41:00,51.4,48.8,30.04,SW,219,0.0,0.0,91,0.00,,,0.00,WUHU216DAVISVP2,2013-07-29 03:41:00,
2013-07-28 23:57:00,51.0,48.4,30.04,SW,219,0.0,0.0,91,0.00,,,0.00,WUHU216DAVISVP2,2013-07-29 03:57:00,